[[{"header":{"parameterUnit":"m.s-1","parameterCategory":2,"la1":30.2991,"la2":30.254,"lo1":-89.0895,"lo2":-89.0444,"dy":0.0017,"dx":0.0017,"nx":28,"ny":28,"refTime":"2025-12-29T03:00:00:Z","depth":"0","parameterNumber":2,"parameterNumberName":"U-component_of_CURRENTS"},"data":[0,0,0,0,0,0,0,0,0,0,0,0,0,0,0,0,0,0,0,0,0,0,0,0,0,0,0,0,0,0,0,0,0,0,0,0,0,0,0,0,0,0,0,0,0,0,0,0,0,0,0,0,0,0,0,0,0,0,-0.2224,-0.2224,0,-0.2247,-0.2248,-0.2248,-0.2219,-0.2218,-0.2217,-0.2216,-0.2217,-0.2218,-0.2219,0,0,0,0,0,0,0,0,0,0,0,0,0,-0.219,-0.2191,-0.2224,-0.2224,-0.2224,-0.2247,-0.2248,-0.2248,-0.2219,-0.2218,-0.2217,-0.2215,-0.2217,-0.2218,-0.2219,0,0,0,0,0,0,0,0,0,0,0,0,0,-0.2207,-0.2191,-0.2224,-0.2214,-0.2213,-0.2247,-0.2248,-0.2248,-0.2219,-0.2218,-0.2216,-0.2215,-0.2217,-0.2218,-0.2219,-0.2257,0,0,-0.2224,-0.2224,0,0,0,0,0,0,0,0,-0.2206,-0.2208,-0.2215,-0.2214,-0.2214,-0.223,-0.2236,-0.225,-0.222,-0.2216,-0.2216,-0.2214,-0.2221,-0.2222,-0.2228,-0.2257,-0.2257,-0.2224,-0.2225,-0.2225,-0.2226,0,0,0,0,0,0,0,-0.2205,-0.2207,-0.2232,-0.2215,-0.2215,-0.2221,-0.2221,-0.2239,-0.2225,-0.2216,-0.2214,-0.2219,-0.222,-0.2227,-0.2228,-0.2257,-0.2224,-0.2225,-0.2226,-0.2226,-0.2306,-0.2307,0,0,0,0,0,0,-0.2204,-0.2206,-0.2231,-0.2233,-0.2208,-0.2222,-0.2223,-0.2225,-0.2225,-0.2224,-0.222,-0.2218,-0.2225,-0.2227,-0.2228,-0.2267,-0.2225,-0.2226,-0.2227,-0.2305,-0.2306,-0.2308,0,0,0,0,0,0,-0.2203,-0.2206,-0.223,-0.2221,-0.2224,-0.2224,-0.2227,-0.2226,-0.2226,-0.2229,-0.2227,-0.222,-0.2224,-0.2226,-0.2244,-0.2266,-0.2227,-0.2228,-0.2303,-0.2305,-0.2307,-0.2348,0,0,0,0,0,0,-0.2202,-0.2206,-0.2205,-0.2221,-0.2225,-0.2251,-0.2229,-0.2228,-0.2232,-0.2228,-0.2229,-0.2227,-0.2223,-0.2242,-0.2246,-0.2268,-0.2229,-0.2302,-0.2304,-0.2307,-0.2345,-0.2351,-0.2356,0,0,0,0,0,-0.2201,-0.2209,-0.2205,-0.2208,-0.2225,-0.2252,-0.2255,-0.2249,-0.2233,-0.2241,-0.224,-0.2227,-0.226,-0.2245,-0.2248,-0.2271,-0.2301,-0.2304,-0.2306,-0.2342,-0.235,-0.2356,0,0,0,0,0,0,-0.2192,-0.2208,-0.2203,-0.2214,-0.2231,-0.2247,-0.2253,-0.2252,-0.2258,-0.225,-0.2245,-0.2246,-0.2271,-0.2269,-0.2252,-0.2302,-0.2278,-0.2282,-0.2304,-0.2311,-0.2317,-0.2341,-0.2231,0,0,0,0,0,-0.2192,-0.2198,-0.2218,-0.2225,-0.2235,-0.2244,-0.2252,-0.2252,-0.2262,-0.2262,-0.2264,-0.227,-0.2291,-0.2295,-0.231,-0.2339,-0.2323,-0.2356,-0.2362,-0.2366,-0.239,-0.2416,-0.2427,-0.2317,-0.2317,-0.2317,0,0,-0.2189,-0.2198,-0.22,-0.2223,-0.2233,-0.2258,-0.2245,-0.2261,-0.228,-0.2264,-0.2284,-0.2292,-0.2303,-0.2335,-0.2346,-0.2331,-0.2373,-0.237,-0.2374,-0.2395,-0.2421,-0.2431,-0.2441,-0.2319,-0.2319,-0.2319,0,0,-0.2193,-0.2197,-0.2206,-0.2227,-0.2247,-0.2263,-0.2268,-0.2289,-0.2294,-0.2321,-0.2318,-0.2354,-0.2359,-0.2394,-0.2406,-0.2459,-0.2405,-0.2439,-0.2485,-0.2511,-0.252,-0.2528,-0.2451,-0.2452,-0.2438,-0.2439,-0.2439,0,-0.2189,-0.2203,-0.2214,-0.2236,-0.2255,-0.2266,-0.2291,-0.231,-0.2332,-0.2352,-0.2328,-0.2395,-0.2403,-0.2473,-0.2481,-0.2477,-0.2431,-0.2455,-0.2518,-0.2527,-0.2534,-0.2454,-0.2455,-0.2441,-0.2441,-0.244,-0.244,0,-0.2202,-0.2218,-0.2229,-0.2259,-0.2285,-0.2308,-0.2341,-0.2364,-0.237,-0.2392,-0.2453,-0.248,-0.2521,-0.2528,-0.2515,-0.2581,-0.2505,-0.2522,-0.25,-0.2548,-0.2458,-0.2458,-0.2444,-0.2443,-0.2443,-0.2442,0,0,-0.2177,-0.2229,-0.223,-0.2249,-0.2299,-0.2319,-0.2368,-0.242,-0.2449,-0.2487,-0.2536,-0.2599,-0.2613,-0.2631,-0.2636,-0.2662,-0.2654,-0.2603,-0.2603,-0.2521,-0.2613,-0.2523,-0.2513,-0.2664,-0.2666,-0.2668,-0.2501,0,-0.2181,-0.222,-0.2251,-0.2293,-0.2319,-0.2361,-0.2405,-0.2455,-0.2489,-0.2536,-0.2603,-0.2644,-0.265,-0.266,-0.27,-0.2678,-0.2667,-0.2692,-0.2584,-0.258,-0.2494,-0.2518,-0.2416,-0.2259,-0.2501,-0.2501,-0.2501,0,-0.218,-0.2208,-0.2249,-0.2312,-0.2327,-0.2356,-0.2427,-0.2468,-0.2552,-0.2579,-0.2657,-0.2684,-0.2755,-0.2739,-0.2751,-0.275,-0.2683,-0.2658,-0.2651,-0.2568,-0.2495,-0.2266,-0.225,-0.2217,-0.2501,-0.2501,-0.2501,0,-0.2146,-0.2206,-0.2236,-0.2257,-0.2332,-0.2358,-0.2396,-0.2477,-0.2518,-0.2601,-0.2632,-0.2722,-0.2749,-0.2744,-0.2702,-0.2707,-0.2668,-0.2673,-0.2522,-0.251,-0.2409,-0.2386,-0.236,-0.2666,-0.2667,-0.2667,-0.2668,0,-0.2137,-0.2157,-0.2217,-0.2231,-0.2269,-0.2329,-0.2379,-0.243,-0.2514,-0.2559,-0.2644,-0.2684,-0.2753,-0.2744,-0.2694,-0.2599,-0.266,-0.2531,-0.2489,-0.241,-0.239,-0.2348,-0.2367,-0.2661,-0.2662,-0.2663,-0.2664,0,-0.2088,-0.2133,-0.2165,-0.2231,-0.2251,-0.2271,-0.2353,-0.2386,-0.2469,-0.2529,-0.2553,-0.2648,-0.263,-0.2647,-0.2612,-0.2569,-0.2438,-0.2435,-0.2288,-0.2234,-0.2082,-0.2107,-0.204,-0.1974,-0.2243,-0.2241,-0.2238,0,-0.2065,-0.2076,-0.2139,-0.215,-0.2173,-0.2218,-0.2247,-0.2346,-0.2384,-0.249,-0.2504,-0.2533,-0.2532,-0.2451,-0.2387,-0.2272,-0.2286,-0.21,-0.2144,-0.2064,-0.2061,-0.2088,-0.2041,-0.1974,-0.197,-0.1966,-0.1964,0,-0.2007,-0.2028,-0.2049,-0.2073,-0.2097,-0.2136,-0.2182,-0.2215,-0.232,-0.2366,-0.2398,-0.2406,-0.2354,-0.2237,-0.2119,-0.2041,-0.205,-0.2022,-0.2012,-0.1918,-0.1877,-0.1794,-0.2026,-0.1932,-0.1935,-0.1938,-0.1939,-0.1941,-0.1946,-0.1943,-0.1965,-0.1976,-0.2006,-0.202,-0.2009,-0.2074,-0.211,-0.2146,-0.2229,-0.2205,-0.2133,-0.197,-0.1876,-0.1705,-0.1791,-0.1653,-0.1695,-0.1732,-0.1685,-0.1805,-0.1643,-0.1645,-0.1646,-0.1647,-0.1648,0,-0.1855,-0.1856,-0.1864,-0.1871,-0.1849,-0.1903,-0.1932,-0.19,-0.1885,-0.196,-0.1967,-0.1943,-0.1783,-0.1711,-0.1543,-0.1428,-0.1394,-0.1382,-0.1419,-0.139,-0.1537,-0.1545,-0.1268,-0.1269,-0.1269,-0.1269,-0.1269,-0.1269,-0.1807,-0.1773,-0.1773,-0.1701,-0.1698,-0.1625,-0.161,-0.1587,-0.1607,-0.1601,-0.1635,-0.1708,-0.1681,-0.1628,-0.1419,-0.1307,-0.1268,-0.1206,-0.1238,-0.1372,-0.1402,-0.1431,-0.1443,-0.115,-0.115,-0.1031,-0.103,-0.103]},{"header":{"parameterUnit":"m.s-1","parameterCategory":2,"la1":30.2991,"la2":30.254,"lo1":-89.0895,"lo2":-89.0444,"dy":0.0017,"dx":0.0017,"nx":28,"ny":28,"refTime":"2025-12-29T03:00:00:Z","depth":"0","parameterNumber":3,"parameterNumberName":"V-component_of_CURRENTS"},"data":[0,0,0,0,0,0,0,0,0,0,0,0,0,0,0,0,0,0,0,0,0,0,0,0,0,0,0,0,0,0,0,0,0,0,0,0,0,0,0,0,0,0,0,0,0,0,0,0,0,0,0,0,0,0,0,0,0,0,-0.0391,-0.039,0,-0.0362,-0.0362,-0.0362,-0.0331,-0.033,-0.033,-0.0329,-0.0253,-0.0251,-0.025,0,0,0,0,0,0,0,0,0,0,0,0,0,-0.0395,-0.0395,-0.0391,-0.039,-0.039,-0.0362,-0.0362,-0.0362,-0.0331,-0.033,-0.033,-0.0329,-0.0254,-0.0252,-0.025,0,0,0,0,0,0,0,0,0,0,0,0,0,-0.0382,-0.0395,-0.0391,-0.0372,-0.037,-0.0363,-0.0362,-0.0361,-0.0331,-0.033,-0.033,-0.0329,-0.0254,-0.0252,-0.0249,-0.0247,0,0,-0.0242,-0.0241,0,0,0,0,0,0,0,0,-0.0383,-0.0382,-0.0375,-0.0373,-0.0371,-0.035,-0.0336,-0.0321,-0.0331,-0.0345,-0.0329,-0.0329,-0.0282,-0.0277,-0.0273,-0.0243,-0.024,-0.0242,-0.024,-0.0239,-0.0238,0,0,0,0,0,0,0,-0.0384,-0.0383,-0.0379,-0.0374,-0.0372,-0.0357,-0.0354,-0.0333,-0.0316,-0.0344,-0.0342,-0.0339,-0.028,-0.0276,-0.0271,-0.0239,-0.0242,-0.024,-0.0238,-0.0237,-0.0188,-0.0188,0,0,0,0,0,0,-0.039,-0.0384,-0.038,-0.0378,-0.0376,-0.0357,-0.0355,-0.0357,-0.0317,-0.0311,-0.034,-0.0338,-0.028,-0.0274,-0.0268,-0.0261,-0.0239,-0.0237,-0.0235,-0.0188,-0.0188,-0.0188,0,0,0,0,0,0,-0.0391,-0.0391,-0.0381,-0.038,-0.0378,-0.0358,-0.0361,-0.0357,-0.0351,-0.0315,-0.0307,-0.0338,-0.0279,-0.0272,-0.0253,-0.0258,-0.0236,-0.0233,-0.0188,-0.0188,-0.0188,-0.0247,0,0,0,0,0,0,-0.0391,-0.0391,-0.0395,-0.0381,-0.0379,-0.0383,-0.0361,-0.0356,-0.035,-0.0348,-0.0311,-0.0303,-0.0278,-0.0257,-0.0251,-0.0254,-0.0232,-0.0187,-0.0188,-0.0188,-0.0245,-0.0249,-0.0253,0,0,0,0,0,-0.0391,-0.0402,-0.0395,-0.0394,-0.0384,-0.0384,-0.0381,-0.0364,-0.0351,-0.0355,-0.0329,-0.0304,-0.0254,-0.0256,-0.0248,-0.025,-0.0187,-0.0188,-0.0188,-0.0243,-0.0248,-0.0253,0,0,0,0,0,0,-0.0406,-0.0399,-0.0391,-0.0399,-0.0394,-0.0379,-0.0379,-0.0368,-0.0351,-0.0346,-0.031,-0.0301,-0.0285,-0.026,-0.0263,-0.0236,-0.0215,-0.0214,-0.026,-0.0264,-0.0268,-0.0276,-0.0229,0,0,0,0,0,-0.0412,-0.0417,-0.0408,-0.0414,-0.0412,-0.0396,-0.0393,-0.0383,-0.0367,-0.036,-0.0334,-0.0304,-0.0281,-0.0268,-0.0244,-0.0233,-0.0174,-0.0227,-0.0231,-0.0235,-0.0235,-0.0114,-0.0106,-0.0189,-0.0189,-0.0189,0,0,-0.0419,-0.0416,-0.0418,-0.0417,-0.0409,-0.0419,-0.0393,-0.0393,-0.0398,-0.0353,-0.0349,-0.0318,-0.0281,-0.0269,-0.0259,-0.0249,-0.019,-0.0236,-0.0239,-0.0237,-0.0113,-0.0104,-0.0097,-0.019,-0.019,-0.019,0,0,-0.0442,-0.0433,-0.0448,-0.0448,-0.0444,-0.0435,-0.0438,-0.0425,-0.0415,-0.041,-0.0376,-0.035,-0.032,-0.0293,-0.0275,-0.0286,-0.0215,-0.0278,-0.0305,-0.0187,-0.0178,-0.017,-0.0125,-0.0112,-0.028,-0.028,-0.028,0,-0.0451,-0.0471,-0.0453,-0.0469,-0.0475,-0.0447,-0.0468,-0.0456,-0.0439,-0.0431,-0.0415,-0.0358,-0.033,-0.0304,-0.0312,-0.0295,-0.0231,-0.0292,-0.019,-0.018,-0.0171,-0.0125,-0.011,-0.0283,-0.0283,-0.0283,-0.0282,0,-0.0488,-0.0504,-0.0513,-0.0525,-0.0527,-0.054,-0.0525,-0.052,-0.0501,-0.0484,-0.0453,-0.0407,-0.0373,-0.0359,-0.0342,-0.0275,-0.0256,-0.0207,-0.0176,-0.0166,-0.012,-0.0103,-0.0287,-0.0286,-0.0285,-0.0285,0,0,-0.0513,-0.0536,-0.054,-0.056,-0.056,-0.057,-0.0572,-0.0569,-0.0568,-0.053,-0.0513,-0.0473,-0.0436,-0.0413,-0.0375,-0.0282,-0.0182,-0.0223,-0.0215,-0.0178,0.0045,-0.0016,-0.0003,-0.0093,-0.009,-0.0087,0.0035,0,-0.055,-0.06,-0.0596,-0.064,-0.0665,-0.0643,-0.0651,-0.0638,-0.0613,-0.0586,-0.0518,-0.049,-0.0459,-0.0439,-0.0342,-0.0205,-0.0132,-0.0222,0.0029,0.0034,-0.0018,0.0017,0.0028,0.0133,0.0052,0.0055,0.0057,0,-0.0593,-0.0621,-0.0674,-0.0706,-0.0713,-0.0728,-0.0731,-0.0734,-0.0684,-0.0659,-0.0605,-0.0549,-0.0447,-0.0404,-0.0172,-0.022,-0.0106,-0.0001,0.0008,-0.0011,0.0007,0.0119,0.0168,0.0315,0.0083,0.0081,0.0079,0,-0.0633,-0.0678,-0.0723,-0.0735,-0.076,-0.0772,-0.0778,-0.0755,-0.0759,-0.0697,-0.0679,-0.0551,-0.0483,-0.0289,-0.0125,-0.0114,0.0141,0.019,0.0226,0.0221,0.0295,0.029,0.0521,0.0354,0.0354,0.0354,0.0353,0,-0.0682,-0.0718,-0.0745,-0.0772,-0.0821,-0.0815,-0.0848,-0.0836,-0.0806,-0.0806,-0.0718,-0.0683,-0.0435,-0.0287,-0.0115,0.0087,0.0151,0.0224,0.0266,0.0265,0.0257,0.0438,0.05,0.0358,0.0357,0.0356,0.0356,0,-0.0724,-0.074,-0.0798,-0.0833,-0.0844,-0.0879,-0.0905,-0.0925,-0.0888,-0.0875,-0.0857,-0.0738,-0.055,-0.035,-0.0047,0.0076,0.037,0.0328,0.0257,0.0288,0.0457,0.0513,0.0755,0.0828,0.0424,0.0424,0.0423,0,-0.0752,-0.0785,-0.0847,-0.0885,-0.0903,-0.0946,-0.0977,-0.0967,-0.0981,-0.0918,-0.091,-0.0764,-0.0664,-0.0302,-0.0044,0.0226,0.0354,0.0369,0.039,0.0468,0.0566,0.0603,0.0651,0.0458,0.0458,0.0458,0.0458,0,-0.0804,-0.0822,-0.087,-0.0949,-0.0995,-0.1049,-0.1083,-0.1105,-0.1081,-0.1057,-0.0994,-0.0906,-0.0608,-0.0314,-0.0014,0.016,0.0468,0.0371,0.0534,0.0666,0.0652,0.0739,0.0318,0.0457,0.0457,0.0457,0.0457,0.0457,-0.0835,-0.0883,-0.0944,-0.1015,-0.1076,-0.1137,-0.1173,-0.1192,-0.1204,-0.1156,-0.1061,-0.0909,-0.0512,-0.0083,0.01,0.0468,0.0473,0.0614,0.0688,0.0727,0.0769,0.0277,0.0407,0.0407,0.0407,0.0406,0.0406,0,-0.0875,-0.0927,-0.1004,-0.1092,-0.1165,-0.1177,-0.1233,-0.1248,-0.1257,-0.1186,-0.1102,-0.0704,-0.0308,0.0076,0.0584,0.0799,0.0878,0.0912,0.1032,0.1077,0.0737,0.0709,0.0812,0.0812,0.0812,0.0811,0.0811,0.0811,-0.0898,-0.0977,-0.1019,-0.1143,-0.1203,-0.1273,-0.1299,-0.1303,-0.1258,-0.1114,-0.0915,-0.0768,-0.0189,0.0634,0.1119,0.117,0.1373,0.1343,0.1448,0.1267,0.1246,0.1227,0.1219,0.1427,0.1428,0.1779,0.1783,0.1785]}],[{"header":{"parameterUnit":"m.s-1","parameterCategory":2,"la1":30.2991,"la2":30.254,"lo1":-89.0895,"lo2":-89.0444,"dy":0.0017,"dx":0.0017,"nx":28,"ny":28,"refTime":"2025-12-29T03:00:00:Z","depth":"2","parameterNumber":2,"parameterNumberName":"U-component_of_CURRENTS"},"data":[0,0,0,0,0,0,0,0,0,0,0,0,0,0,0,0,0,0,0,0,0,0,0,0,0,0,0,0,0,0,0,0,0,0,0,0,0,0,0,0,0,0,0,0,0,0,0,0,0,0,0,0,0,0,0,0,0,0,-0.2183,-0.2184,0,-0.2209,-0.2209,-0.2209,-0.2185,-0.2184,-0.2183,-0.2182,-0.2184,-0.2185,-0.2186,0,0,0,0,0,0,0,0,0,0,0,0,0,-0.2144,-0.2145,-0.2183,-0.2184,-0.2184,-0.2209,-0.2209,-0.2209,-0.2185,-0.2184,-0.2183,-0.2182,-0.2184,-0.2185,-0.2186,0,0,0,0,0,0,0,0,0,0,0,0,0,-0.2163,-0.2145,-0.2183,-0.2176,-0.2175,-0.2209,-0.2209,-0.2209,-0.2185,-0.2184,-0.2182,-0.2181,-0.2184,-0.2185,-0.2186,-0.222,0,0,-0.219,-0.2191,0,0,0,0,0,0,0,0,-0.2162,-0.2165,-0.2176,-0.2176,-0.2176,-0.2193,-0.2196,-0.2212,-0.2185,-0.218,-0.2182,-0.2181,-0.2187,-0.2188,-0.2194,-0.222,-0.222,-0.219,-0.2191,-0.2192,-0.2192,0,0,0,0,0,0,0,-0.2161,-0.2163,-0.2192,-0.2177,-0.2177,-0.2182,-0.2183,-0.2199,-0.2189,-0.2181,-0.2179,-0.2184,-0.2186,-0.2193,-0.2194,-0.222,-0.219,-0.2191,-0.2192,-0.2193,-0.2269,-0.227,0,0,0,0,0,0,-0.216,-0.2162,-0.2191,-0.2193,-0.2167,-0.2184,-0.2185,-0.2188,-0.2189,-0.2189,-0.2185,-0.2183,-0.2191,-0.2193,-0.2194,-0.2232,-0.2192,-0.2193,-0.2194,-0.2267,-0.2269,-0.227,0,0,0,0,0,0,-0.2159,-0.2162,-0.219,-0.2179,-0.2183,-0.2185,-0.219,-0.2189,-0.2191,-0.2194,-0.2192,-0.2187,-0.219,-0.2192,-0.221,-0.2231,-0.2193,-0.2195,-0.2266,-0.2268,-0.227,-0.2308,0,0,0,0,0,0,-0.2158,-0.2162,-0.2163,-0.2179,-0.2184,-0.2212,-0.2191,-0.2191,-0.2197,-0.2194,-0.2195,-0.2194,-0.219,-0.2208,-0.2212,-0.2232,-0.2196,-0.2264,-0.2267,-0.2269,-0.2306,-0.2311,-0.2316,0,0,0,0,0,-0.2156,-0.2165,-0.2163,-0.2166,-0.2185,-0.2213,-0.2216,-0.2212,-0.2198,-0.2207,-0.2206,-0.2193,-0.2225,-0.2211,-0.2214,-0.2236,-0.2263,-0.2266,-0.2269,-0.2303,-0.231,-0.2316,0,0,0,0,0,0,-0.2147,-0.2164,-0.2162,-0.2174,-0.2192,-0.2209,-0.2216,-0.2215,-0.2223,-0.2215,-0.2211,-0.2211,-0.2237,-0.2234,-0.2218,-0.2265,-0.2242,-0.2246,-0.2267,-0.2274,-0.2279,-0.2298,-0.2197,0,0,0,0,0,-0.2147,-0.2155,-0.2177,-0.2185,-0.2196,-0.2206,-0.2215,-0.2216,-0.2226,-0.2227,-0.223,-0.2236,-0.2255,-0.2259,-0.2274,-0.23,-0.2288,-0.2317,-0.2322,-0.2326,-0.2345,-0.2382,-0.2393,-0.2279,-0.2279,-0.2279,0,0,-0.2145,-0.2156,-0.2159,-0.2183,-0.2194,-0.2219,-0.2207,-0.2225,-0.2244,-0.2229,-0.225,-0.2257,-0.2267,-0.2297,-0.2308,-0.2293,-0.2337,-0.233,-0.2334,-0.235,-0.2386,-0.2398,-0.2407,-0.2281,-0.2281,-0.2281,0,0,-0.2149,-0.2156,-0.2166,-0.2187,-0.221,-0.2225,-0.2231,-0.2252,-0.2259,-0.2285,-0.2282,-0.2314,-0.2322,-0.2351,-0.2362,-0.2411,-0.2368,-0.2397,-0.2437,-0.2473,-0.2483,-0.2491,-0.242,-0.2423,-0.2396,-0.2396,-0.2396,0,-0.2146,-0.2161,-0.2175,-0.2197,-0.2215,-0.2229,-0.2253,-0.2272,-0.2295,-0.2313,-0.2293,-0.2354,-0.2361,-0.2421,-0.2431,-0.2428,-0.2394,-0.2409,-0.248,-0.2489,-0.2498,-0.2423,-0.2426,-0.2398,-0.2398,-0.2398,-0.2397,0,-0.216,-0.2177,-0.2189,-0.2219,-0.2245,-0.2268,-0.2301,-0.2324,-0.2331,-0.2351,-0.2406,-0.243,-0.2466,-0.2473,-0.2463,-0.2528,-0.2462,-0.2484,-0.2463,-0.2511,-0.2429,-0.243,-0.2401,-0.2401,-0.24,-0.2399,0,0,-0.2136,-0.2188,-0.219,-0.2209,-0.2258,-0.2278,-0.2325,-0.2374,-0.2398,-0.2436,-0.2477,-0.2536,-0.2547,-0.2562,-0.2567,-0.26,-0.2606,-0.2558,-0.2559,-0.2483,-0.2593,-0.2489,-0.2479,-0.2632,-0.2634,-0.2636,-0.2486,0,-0.214,-0.2179,-0.221,-0.225,-0.2275,-0.2317,-0.2358,-0.2404,-0.2435,-0.2476,-0.2534,-0.2569,-0.258,-0.2588,-0.2634,-0.2629,-0.2622,-0.2639,-0.2562,-0.2558,-0.2461,-0.2485,-0.2316,-0.2166,-0.2487,-0.2487,-0.2487,0,-0.214,-0.2167,-0.2207,-0.2266,-0.2281,-0.2309,-0.2374,-0.2412,-0.2485,-0.251,-0.2578,-0.2601,-0.2671,-0.2662,-0.2696,-0.2696,-0.2644,-0.263,-0.2624,-0.2527,-0.2462,-0.2185,-0.2156,-0.2489,-0.2489,-0.2489,-0.2489,0,-0.2105,-0.2164,-0.2193,-0.2213,-0.2284,-0.231,-0.2346,-0.2417,-0.2454,-0.2526,-0.2553,-0.2639,-0.2666,-0.2682,-0.2658,-0.2667,-0.2652,-0.2663,-0.2509,-0.2495,-0.2341,-0.2312,-0.2668,-0.2668,-0.2668,-0.2669,-0.2669,0,-0.2095,-0.2114,-0.2174,-0.2187,-0.2222,-0.228,-0.2324,-0.2372,-0.2446,-0.2482,-0.2561,-0.2593,-0.2677,-0.2678,-0.2651,-0.2574,-0.2645,-0.2513,-0.2476,-0.2339,-0.2313,-0.2609,-0.2604,-0.2663,-0.2664,-0.2665,-0.2666,0,-0.2046,-0.2091,-0.2121,-0.2186,-0.2205,-0.2223,-0.2298,-0.2325,-0.2402,-0.2451,-0.2473,-0.256,-0.2555,-0.2582,-0.2576,-0.254,-0.2491,-0.2428,-0.2208,-0.2151,-0.2291,-0.229,-0.2243,-0.2239,-0.2235,-0.2232,-0.223,0,-0.2024,-0.2034,-0.2095,-0.2104,-0.2128,-0.2169,-0.2195,-0.2287,-0.2316,-0.2413,-0.2421,-0.245,-0.2445,-0.239,-0.2332,-0.2239,-0.2342,-0.2015,-0.2046,-0.2292,-0.226,-0.2265,-0.2269,-0.1806,-0.18,-0.1796,-0.1792,0,-0.1967,-0.1988,-0.2008,-0.2029,-0.2051,-0.2084,-0.2124,-0.215,-0.2246,-0.2284,-0.2309,-0.2313,-0.2262,-0.2116,-0.201,-0.1944,-0.2036,-0.1913,-0.225,-0.1961,-0.1875,-0.1846,-0.1865,-0.1749,-0.1754,-0.1757,-0.1759,-0.1761,-0.1909,-0.1905,-0.1926,-0.1934,-0.196,-0.1967,-0.1951,-0.2004,-0.203,-0.2043,-0.2124,-0.2059,-0.2031,-0.1793,-0.1673,-0.1577,-0.173,-0.1658,-0.1675,-0.1696,-0.1694,-0.161,-0.1426,-0.1428,-0.143,-0.1432,-0.1434,0,-0.1819,-0.182,-0.1825,-0.1828,-0.1802,-0.1855,-0.1873,-0.1828,-0.1799,-0.1834,-0.1826,-0.1628,-0.1503,-0.147,-0.1258,-0.1204,-0.1216,-0.1146,-0.1175,-0.1217,-0.1255,-0.1234,-0.0841,-0.0839,-0.0838,-0.0836,0,0,-0.1772,-0.1737,-0.1735,-0.1659,-0.1655,-0.1578,-0.1557,-0.1513,-0.15,-0.1429,-0.1384,-0.1468,-0.1464,-0.1174,-0.1082,-0.0933,-0.1074,-0.0879,-0.1358,-0.1437,-0.1473,-0.155,-0.1565,0,0,0,0,0]},{"header":{"parameterUnit":"m.s-1","parameterCategory":2,"la1":30.2991,"la2":30.254,"lo1":-89.0895,"lo2":-89.0444,"dy":0.0017,"dx":0.0017,"nx":28,"ny":28,"refTime":"2025-12-29T03:00:00:Z","depth":"2","parameterNumber":3,"parameterNumberName":"V-component_of_CURRENTS"},"data":[0,0,0,0,0,0,0,0,0,0,0,0,0,0,0,0,0,0,0,0,0,0,0,0,0,0,0,0,0,0,0,0,0,0,0,0,0,0,0,0,0,0,0,0,0,0,0,0,0,0,0,0,0,0,0,0,0,0,-0.0274,-0.0274,0,-0.0245,-0.0245,-0.0244,-0.0216,-0.0215,-0.0215,-0.0215,-0.014,-0.0139,-0.0137,0,0,0,0,0,0,0,0,0,0,0,0,0,-0.0278,-0.0278,-0.0274,-0.0274,-0.0274,-0.0245,-0.0245,-0.0244,-0.0216,-0.0215,-0.0215,-0.0214,-0.0141,-0.0139,-0.0137,0,0,0,0,0,0,0,0,0,0,0,0,0,-0.0265,-0.0278,-0.0274,-0.0256,-0.0254,-0.0245,-0.0245,-0.0244,-0.0216,-0.0215,-0.0215,-0.0214,-0.0142,-0.0139,-0.0137,-0.0131,0,0,-0.0129,-0.0128,0,0,0,0,0,0,0,0,-0.0266,-0.0265,-0.0259,-0.0258,-0.0255,-0.0234,-0.0219,-0.0204,-0.0216,-0.023,-0.0215,-0.0214,-0.0168,-0.0163,-0.0159,-0.0128,-0.0124,-0.0129,-0.0127,-0.0126,-0.0126,0,0,0,0,0,0,0,-0.0267,-0.0266,-0.0262,-0.0259,-0.0257,-0.024,-0.0238,-0.0216,-0.0201,-0.0229,-0.0227,-0.0224,-0.0167,-0.0162,-0.0157,-0.0123,-0.0129,-0.0127,-0.0125,-0.0124,-0.0078,-0.0078,0,0,0,0,0,0,-0.0273,-0.0267,-0.0263,-0.0261,-0.026,-0.0241,-0.0238,-0.0241,-0.0202,-0.0196,-0.0225,-0.0223,-0.0166,-0.016,-0.0154,-0.0151,-0.0126,-0.0124,-0.0122,-0.0077,-0.0078,-0.0078,0,0,0,0,0,0,-0.0274,-0.0274,-0.0264,-0.0263,-0.0261,-0.0242,-0.0244,-0.0241,-0.0236,-0.02,-0.0193,-0.0224,-0.0165,-0.0158,-0.014,-0.0148,-0.0123,-0.012,-0.0077,-0.0078,-0.0078,-0.0142,0,0,0,0,0,0,-0.0274,-0.0274,-0.0278,-0.0264,-0.0261,-0.0266,-0.0245,-0.024,-0.0235,-0.0233,-0.0197,-0.0189,-0.0164,-0.0145,-0.0138,-0.0144,-0.0119,-0.0077,-0.0077,-0.0078,-0.0139,-0.0144,-0.0149,0,0,0,0,0,-0.0274,-0.0285,-0.0279,-0.0278,-0.0268,-0.0267,-0.0264,-0.0247,-0.0236,-0.024,-0.0215,-0.019,-0.0143,-0.0143,-0.0135,-0.0141,-0.0077,-0.0077,-0.0078,-0.0137,-0.0143,-0.0149,0,0,0,0,0,0,-0.029,-0.0283,-0.0275,-0.0284,-0.0278,-0.0262,-0.0263,-0.0252,-0.0236,-0.0232,-0.0196,-0.0187,-0.0174,-0.0149,-0.015,-0.0128,-0.0104,-0.0104,-0.0152,-0.0158,-0.0162,-0.0175,-0.0116,0,0,0,0,0,-0.0296,-0.0301,-0.0292,-0.0298,-0.0297,-0.028,-0.0277,-0.0268,-0.0253,-0.0245,-0.022,-0.0192,-0.0171,-0.0158,-0.0135,-0.0125,-0.0074,-0.0122,-0.0127,-0.0131,-0.0135,-0.0029,-0.0024,-0.008,-0.008,-0.008,0,0,-0.0303,-0.03,-0.0303,-0.0302,-0.0294,-0.0305,-0.0277,-0.0278,-0.0285,-0.0239,-0.0237,-0.0207,-0.0172,-0.0162,-0.0153,-0.0142,-0.0097,-0.0132,-0.0136,-0.0137,-0.0029,-0.0024,-0.0018,-0.008,-0.008,-0.008,0,0,-0.0328,-0.032,-0.0335,-0.0335,-0.033,-0.0322,-0.0325,-0.0312,-0.0304,-0.0299,-0.0267,-0.0245,-0.0214,-0.0191,-0.0175,-0.019,-0.0124,-0.018,-0.0214,-0.0111,-0.0105,-0.0099,-0.0066,-0.0056,-0.0182,-0.0183,-0.0183,0,-0.0338,-0.0358,-0.0339,-0.0356,-0.0362,-0.0334,-0.0357,-0.0345,-0.0329,-0.0324,-0.0307,-0.0257,-0.0229,-0.0212,-0.022,-0.0201,-0.0145,-0.0198,-0.0116,-0.0109,-0.0101,-0.0068,-0.0056,-0.0186,-0.0185,-0.0185,-0.0185,0,-0.0376,-0.0392,-0.0401,-0.0415,-0.0417,-0.0431,-0.0417,-0.0414,-0.0397,-0.0383,-0.0359,-0.0315,-0.0287,-0.0272,-0.0253,-0.0201,-0.0182,-0.0132,-0.0101,-0.0099,-0.0065,-0.0052,-0.019,-0.0189,-0.0188,-0.0187,0,0,-0.0402,-0.0425,-0.043,-0.045,-0.0452,-0.0462,-0.0469,-0.047,-0.0474,-0.044,-0.0433,-0.0396,-0.0363,-0.0342,-0.0304,-0.0223,-0.0143,-0.0162,-0.0155,-0.0131,0.0049,0.0021,0.0032,-0.0057,-0.0054,-0.0052,0.0038,0,-0.044,-0.049,-0.0487,-0.0534,-0.056,-0.054,-0.0552,-0.0545,-0.0523,-0.0506,-0.0447,-0.0425,-0.0391,-0.0374,-0.029,-0.0159,-0.0104,-0.0175,0.0045,0.005,0.0026,0.0049,0.0035,0.0113,0.0052,0.0054,0.0055,0,-0.0483,-0.0512,-0.0566,-0.0602,-0.061,-0.0627,-0.0639,-0.0644,-0.0608,-0.0587,-0.0546,-0.0495,-0.0408,-0.0363,-0.0158,-0.0193,-0.0095,0.0003,0.001,0.0019,0.0048,0.011,0.014,0.0078,0.0076,0.0075,0.0073,0,-0.0522,-0.057,-0.0617,-0.0629,-0.0659,-0.0674,-0.0683,-0.0669,-0.0677,-0.063,-0.0619,-0.0511,-0.045,-0.0278,-0.0116,-0.011,0.0124,0.0161,0.0207,0.0204,0.025,0.0246,0.0293,0.0293,0.0292,0.0292,0.0292,0,-0.0571,-0.0609,-0.0638,-0.0666,-0.0719,-0.0717,-0.0755,-0.0749,-0.0731,-0.0737,-0.0662,-0.0635,-0.041,-0.0271,-0.0113,0.008,0.0126,0.0199,0.0242,0.0219,0.0212,0.0237,0.0229,0.0296,0.0295,0.0294,0.0294,0,-0.0612,-0.063,-0.069,-0.0729,-0.0742,-0.0779,-0.0811,-0.0835,-0.0808,-0.0805,-0.0792,-0.0689,-0.051,-0.0319,-0.0045,0.0068,0.0266,0.0305,0.0219,0.0249,0.0267,0.0255,0.0386,0.0386,0.0386,0.0386,0.0386,0,-0.064,-0.0672,-0.0738,-0.0776,-0.0797,-0.0843,-0.0877,-0.0874,-0.0891,-0.0843,-0.0841,-0.0704,-0.0609,-0.0262,-0.002,0.023,0.0245,0.0337,0.0342,0.0257,0.0285,0.0273,0.0261,0.0363,0.0363,0.0363,0.0363,0,-0.0689,-0.0709,-0.0758,-0.0838,-0.0886,-0.0941,-0.0978,-0.1002,-0.0987,-0.0968,-0.0911,-0.0828,-0.0546,-0.0275,0.0017,0.0169,0.0306,0.0339,0.0338,0.0324,0.024,0.0265,0.0254,0.0362,0.0362,0.0362,0.0362,0.0362,-0.072,-0.0767,-0.0828,-0.0901,-0.0963,-0.1023,-0.1059,-0.1078,-0.1091,-0.104,-0.0957,-0.0796,-0.0557,-0.0137,0.0081,0.0291,0.0288,0.0371,0.0371,0.0371,0.0335,0.0254,0.0368,0.0368,0.0369,0.0369,0.0369,0,-0.0758,-0.081,-0.0886,-0.0973,-0.1044,-0.1061,-0.1116,-0.1121,-0.1124,-0.1041,-0.0954,-0.0671,-0.0397,-0.0141,0.0182,0.0359,0.0375,0.0394,0.039,0.0389,0.0389,0.0354,0.0393,0.0394,0.0394,0.0395,0,0,-0.0779,-0.0856,-0.0897,-0.1017,-0.1078,-0.1144,-0.1169,-0.1152,-0.1091,-0.0996,-0.0862,-0.0694,-0.0385,-0.0152,0.0073,0.0246,0.0274,0.0266,0.0228,0.0195,0.0193,0.0357,0.03,0,0,0,0,0]}],[{"header":{"parameterUnit":"m.s-1","parameterCategory":2,"la1":30.2991,"la2":30.254,"lo1":-89.0895,"lo2":-89.0444,"dy":0.0017,"dx":0.0017,"nx":28,"ny":28,"refTime":"2025-12-29T03:00:00:Z","depth":"4","parameterNumber":2,"parameterNumberName":"U-component_of_CURRENTS"},"data":[0,0,0,0,0,0,0,0,0,0,0,0,0,0,0,0,0,0,0,0,0,0,0,0,0,0,0,0,0,0,0,0,0,0,0,0,0,0,0,0,0,0,0,0,0,0,0,0,0,0,0,0,0,0,0,0,0,0,-0.1622,-0.1623,0,-0.1688,-0.1688,-0.1689,-0.1722,-0.1722,-0.1722,-0.1722,-0.1781,-0.1782,-0.1784,0,0,0,0,0,0,0,0,0,0,0,0,0,-0.1528,-0.1529,-0.1622,-0.1623,-0.1624,-0.1687,-0.1688,-0.1689,-0.1722,-0.1722,-0.1722,-0.1722,-0.178,-0.1782,-0.1784,0,0,0,0,0,0,0,0,0,0,0,0,0,-0.1577,-0.153,-0.1622,-0.1649,-0.1652,-0.1687,-0.1688,-0.1689,-0.1722,-0.1722,-0.1722,-0.1722,-0.178,-0.1782,-0.1784,-0.1793,0,0,-0.179,-0.1791,0,0,0,0,0,0,0,0,-0.1574,-0.158,-0.1644,-0.1647,-0.1651,-0.1698,-0.1677,-0.1724,-0.1722,-0.1694,-0.1722,-0.1723,-0.1753,-0.1758,-0.1767,-0.1795,-0.1798,-0.1791,-0.1792,-0.1793,-0.1793,0,0,0,0,0,0,0,-0.1571,-0.1578,-0.1646,-0.1645,-0.1649,-0.1659,-0.1666,-0.1686,-0.172,-0.1696,-0.1699,-0.1709,-0.1755,-0.1765,-0.1769,-0.1799,-0.1791,-0.1792,-0.1794,-0.1795,-0.1901,-0.1902,0,0,0,0,0,0,-0.1566,-0.1575,-0.1644,-0.1648,-0.1614,-0.1661,-0.1668,-0.1681,-0.172,-0.1727,-0.1708,-0.171,-0.1762,-0.1767,-0.1771,-0.1842,-0.1793,-0.1795,-0.1796,-0.1899,-0.1901,-0.1903,0,0,0,0,0,0,-0.1563,-0.1571,-0.1642,-0.1614,-0.1624,-0.1662,-0.1676,-0.1683,-0.1717,-0.173,-0.1736,-0.174,-0.1762,-0.1768,-0.1814,-0.1842,-0.1796,-0.1798,-0.1897,-0.19,-0.1902,-0.1946,0,0,0,0,0,0,-0.156,-0.157,-0.1591,-0.1614,-0.1625,-0.168,-0.1676,-0.1684,-0.1722,-0.1725,-0.1758,-0.1762,-0.1763,-0.1811,-0.1816,-0.1844,-0.1799,-0.1895,-0.1898,-0.1901,-0.1942,-0.1949,-0.1955,0,0,0,0,0,-0.1557,-0.158,-0.1591,-0.1601,-0.1648,-0.1682,-0.1689,-0.1715,-0.1724,-0.1746,-0.177,-0.1763,-0.1833,-0.1814,-0.182,-0.1849,-0.1894,-0.1898,-0.1901,-0.1939,-0.1948,-0.1955,0,0,0,0,0,0,-0.1551,-0.1586,-0.1599,-0.1633,-0.1664,-0.1688,-0.1716,-0.1731,-0.1767,-0.1777,-0.1784,-0.1791,-0.1842,-0.1842,-0.1821,-0.1889,-0.1862,-0.1866,-0.1889,-0.1897,-0.1903,-0.1898,-0.1801,0,0,0,0,0,-0.1558,-0.1587,-0.1618,-0.1649,-0.1667,-0.1696,-0.1718,-0.1736,-0.1765,-0.1783,-0.1806,-0.1831,-0.1857,-0.1874,-0.1898,-0.1935,-0.1908,-0.1958,-0.1964,-0.1969,-0.197,-0.1924,-0.1926,-0.1914,-0.1914,-0.1914,0,0,-0.1565,-0.1589,-0.1607,-0.165,-0.1677,-0.1709,-0.1711,-0.1753,-0.1784,-0.1783,-0.1842,-0.186,-0.1874,-0.1918,-0.194,-0.1923,-0.1967,-0.1974,-0.1978,-0.1976,-0.1928,-0.1929,-0.1929,-0.1916,-0.1916,-0.1916,0,0,-0.1582,-0.1615,-0.1642,-0.1672,-0.1718,-0.1737,-0.1754,-0.1796,-0.1824,-0.1875,-0.1883,-0.192,-0.1962,-0.1976,-0.1986,-0.2043,-0.2005,-0.2054,-0.2079,-0.2035,-0.2035,-0.2034,-0.203,-0.2028,-0.2053,-0.2053,-0.2053,0,-0.1591,-0.1626,-0.1656,-0.1688,-0.1717,-0.1752,-0.1785,-0.1819,-0.1872,-0.1895,-0.1903,-0.1965,-0.1988,-0.2022,-0.205,-0.2057,-0.203,-0.2046,-0.204,-0.2039,-0.2037,-0.2033,-0.203,-0.2055,-0.2055,-0.2055,-0.2055,0,-0.1616,-0.1658,-0.1679,-0.173,-0.1765,-0.1802,-0.1847,-0.1891,-0.1927,-0.1951,-0.2006,-0.2031,-0.2061,-0.208,-0.2088,-0.21,-0.2086,-0.2053,-0.2013,-0.204,-0.2035,-0.2032,-0.2059,-0.2058,-0.2057,-0.2057,0,0,-0.1597,-0.1681,-0.169,-0.1721,-0.1791,-0.1816,-0.1881,-0.1935,-0.1965,-0.202,-0.2041,-0.2111,-0.2117,-0.213,-0.2138,-0.2114,-0.2107,-0.2085,-0.2082,-0.207,-0.2028,-0.1906,-0.1891,-0.2053,-0.2052,-0.2052,-0.2038,0,-0.1609,-0.167,-0.1712,-0.1775,-0.1808,-0.1865,-0.1914,-0.1969,-0.2012,-0.2042,-0.2071,-0.2102,-0.2136,-0.2145,-0.2134,-0.2096,-0.2095,-0.2115,-0.2014,-0.2012,-0.1888,-0.1881,-0.2049,-0.2036,-0.2035,-0.2034,-0.2034,0,-0.161,-0.1653,-0.1716,-0.1793,-0.1813,-0.1858,-0.1931,-0.1979,-0.2032,-0.2062,-0.2096,-0.2107,-0.2122,-0.2121,-0.2092,-0.2095,-0.2084,-0.2055,-0.2053,-0.1915,-0.1881,-0.1997,-0.2027,-0.2027,-0.2028,-0.2028,-0.2029,0,-0.1562,-0.1651,-0.1702,-0.1731,-0.1823,-0.1866,-0.1916,-0.1986,-0.202,-0.2065,-0.2077,-0.2094,-0.2092,-0.2061,-0.2052,-0.2057,-0.1984,-0.1975,-0.1872,-0.1865,-0.1961,-0.1961,-0.1957,-0.1957,-0.1957,-0.1957,-0.1957,0,-0.1539,-0.1581,-0.1688,-0.1713,-0.1767,-0.1842,-0.1896,-0.1951,-0.2003,-0.2016,-0.2081,-0.2072,-0.2069,-0.2039,-0.2026,-0.1929,-0.197,-0.187,-0.1836,-0.1987,-0.1991,-0.196,-0.1961,-0.1957,-0.1957,-0.1957,-0.1957,0,-0.147,-0.1547,-0.1607,-0.1713,-0.1747,-0.1784,-0.188,-0.19,-0.1978,-0.1987,-0.1998,-0.2038,-0.1993,-0.1993,-0.1931,-0.1882,-0.1808,-0.1782,-0.197,-0.1949,-0.1737,-0.1741,-0.164,-0.1635,-0.1631,-0.1628,-0.1625,0,-0.1438,-0.1465,-0.1587,-0.1617,-0.1669,-0.1739,-0.1772,-0.1871,-0.1882,-0.1951,-0.1922,-0.1928,-0.1939,-0.1762,-0.178,-0.1723,-0.1722,-0.169,-0.1698,-0.1718,-0.1697,-0.1707,-0.1716,-0.1619,-0.1618,-0.1616,-0.1615,0,-0.1366,-0.1425,-0.1472,-0.1533,-0.1584,-0.1628,-0.1683,-0.1679,-0.1765,-0.1852,-0.1795,-0.1765,-0.1714,-0.1663,-0.1634,-0.1603,-0.169,-0.1647,-0.1656,-0.1664,-0.1691,-0.1676,-0.1689,-0.1601,-0.1603,-0.1605,-0.1605,0,-0.1309,-0.1322,-0.1389,-0.1425,-0.1486,-0.1486,-0.1538,-0.1539,-0.1567,-0.1648,-0.162,-0.1641,-0.1684,-0.1601,-0.1567,-0.1517,-0.1503,-0.1461,-0.148,-0.1496,-0.1451,-0.1465,-0.1261,0,0,0,0,0,-0.124,-0.1237,-0.1267,-0.13,-0.1353,-0.1383,-0.1455,-0.1504,-0.1588,-0.1503,-0.156,-0.1513,-0.1457,-0.1471,-0.1386,-0.1503,-0.151,-0.1399,-0.1473,-0.1523,-0.1539,-0.1498,0,0,0,0,0,0,-0.1193,-0.1221,-0.1226,-0.1182,-0.1176,-0.1213,-0.1254,-0.1315,-0.1278,-0.1372,-0.1345,-0.1421,-0.1384,-0.1474,-0.1353,-0.1357,-0.1372,-0.1425,-0.1421,-0.1514,-0.1529,-0.1542,-0.1505,0,0,0,0,0]},{"header":{"parameterUnit":"m.s-1","parameterCategory":2,"la1":30.2991,"la2":30.254,"lo1":-89.0895,"lo2":-89.0444,"dy":0.0017,"dx":0.0017,"nx":28,"ny":28,"refTime":"2025-12-29T03:00:00:Z","depth":"4","parameterNumber":3,"parameterNumberName":"V-component_of_CURRENTS"},"data":[0,0,0,0,0,0,0,0,0,0,0,0,0,0,0,0,0,0,0,0,0,0,0,0,0,0,0,0,0,0,0,0,0,0,0,0,0,0,0,0,0,0,0,0,0,0,0,0,0,0,0,0,0,0,0,0,0,0,-0.0134,-0.0134,0,-0.0114,-0.0114,-0.0114,-0.0096,-0.0095,-0.0095,-0.0095,-0.0039,-0.0038,-0.0037,0,0,0,0,0,0,0,0,0,0,0,0,0,-0.0129,-0.0129,-0.0134,-0.0134,-0.0134,-0.0115,-0.0114,-0.0114,-0.0096,-0.0095,-0.0095,-0.0095,-0.004,-0.0038,-0.0037,0,0,0,0,0,0,0,0,0,0,0,0,0,-0.0122,-0.0129,-0.0134,-0.0123,-0.0121,-0.0115,-0.0114,-0.0114,-0.0096,-0.0095,-0.0095,-0.0095,-0.004,-0.0038,-0.0036,-0.003,0,0,-0.003,-0.003,0,0,0,0,0,0,0,0,-0.0123,-0.0122,-0.0124,-0.0123,-0.0122,-0.0108,-0.0092,-0.0084,-0.0096,-0.0105,-0.0095,-0.0095,-0.0059,-0.0056,-0.0053,-0.0027,-0.0025,-0.003,-0.0029,-0.0028,-0.0028,0,0,0,0,0,0,0,-0.0123,-0.0123,-0.0126,-0.0124,-0.0123,-0.0109,-0.0108,-0.009,-0.0083,-0.0104,-0.0103,-0.0102,-0.0058,-0.0055,-0.0051,-0.0024,-0.003,-0.0029,-0.0027,-0.0027,0.0,-0.0,0,0,0,0,0,0,-0.0128,-0.0124,-0.0127,-0.0125,-0.0122,-0.011,-0.0108,-0.0112,-0.0084,-0.008,-0.0102,-0.0101,-0.0058,-0.0053,-0.0049,-0.0059,-0.0028,-0.0026,-0.0025,0.0001,-0.0,-0.0001,0,0,0,0,0,0,-0.0128,-0.0129,-0.0127,-0.0124,-0.0123,-0.011,-0.0114,-0.0112,-0.0111,-0.0083,-0.0078,-0.0104,-0.0058,-0.0052,-0.0042,-0.0056,-0.0026,-0.0024,0.0001,0.0,-0.0,-0.0066,0,0,0,0,0,0,-0.0128,-0.0129,-0.0134,-0.0125,-0.0123,-0.0131,-0.0115,-0.0112,-0.011,-0.0109,-0.0082,-0.0077,-0.0057,-0.0045,-0.004,-0.0053,-0.0022,0.0002,0.0001,-0.0,-0.0064,-0.0069,-0.0074,0,0,0,0,0,-0.0128,-0.0139,-0.0135,-0.0135,-0.0131,-0.0132,-0.013,-0.012,-0.0111,-0.0116,-0.0099,-0.0078,-0.0047,-0.0044,-0.0038,-0.005,0.0002,0.0001,-0.0,-0.0061,-0.0068,-0.0074,0,0,0,0,0,0,-0.0141,-0.0138,-0.0133,-0.0143,-0.0141,-0.0129,-0.0132,-0.0124,-0.0115,-0.0113,-0.0084,-0.0078,-0.0074,-0.0052,-0.005,-0.0044,-0.0019,-0.0018,-0.0067,-0.0073,-0.0078,-0.01,-0.0021,0,0,0,0,0,-0.0147,-0.0154,-0.0148,-0.0156,-0.0156,-0.0145,-0.0143,-0.0138,-0.0128,-0.0124,-0.0105,-0.0086,-0.0074,-0.0066,-0.0049,-0.0047,-0.0031,-0.0049,-0.0055,-0.0059,-0.0072,-0.01,-0.011,-0.0004,-0.0004,-0.0004,0,0,-0.0154,-0.0153,-0.0157,-0.0159,-0.0155,-0.0168,-0.0143,-0.0147,-0.016,-0.0118,-0.0127,-0.0103,-0.0077,-0.0077,-0.0073,-0.006,-0.0068,-0.0061,-0.0065,-0.0075,-0.0103,-0.0113,-0.0123,-0.0005,-0.0005,-0.0004,0,0,-0.0177,-0.0172,-0.0187,-0.019,-0.019,-0.0185,-0.0189,-0.0182,-0.018,-0.0183,-0.0158,-0.015,-0.0124,-0.0117,-0.0108,-0.0132,-0.0096,-0.0116,-0.0161,-0.0189,-0.0198,-0.0207,-0.0149,-0.0151,-0.0119,-0.0119,-0.012,0,-0.0186,-0.0207,-0.0192,-0.021,-0.0219,-0.0197,-0.0221,-0.0218,-0.0209,-0.0214,-0.0194,-0.0176,-0.015,-0.0162,-0.0166,-0.0147,-0.0128,-0.0141,-0.0198,-0.0206,-0.0214,-0.0153,-0.0155,-0.0123,-0.0122,-0.0122,-0.0122,0,-0.0221,-0.024,-0.0249,-0.0267,-0.0274,-0.029,-0.0286,-0.0291,-0.0281,-0.0276,-0.0282,-0.0252,-0.0243,-0.023,-0.0203,-0.0238,-0.0192,-0.0204,-0.0188,-0.0229,-0.016,-0.0162,-0.0127,-0.0126,-0.0125,-0.0124,0,0,-0.0239,-0.0269,-0.0275,-0.0298,-0.0308,-0.032,-0.0341,-0.0357,-0.0374,-0.036,-0.0382,-0.036,-0.0338,-0.0327,-0.0294,-0.0311,-0.0323,-0.0281,-0.0281,-0.0231,-0.0324,-0.0255,-0.0249,-0.0355,-0.0357,-0.0359,-0.0236,0,-0.0274,-0.0324,-0.0328,-0.0379,-0.0406,-0.0401,-0.0425,-0.0434,-0.0428,-0.044,-0.0417,-0.0418,-0.0376,-0.0368,-0.0383,-0.0349,-0.0338,-0.0351,-0.0285,-0.0281,-0.0225,-0.0254,-0.0365,-0.0237,-0.0237,-0.0237,-0.0237,0,-0.0308,-0.0339,-0.0396,-0.0445,-0.0456,-0.0482,-0.0517,-0.0534,-0.0538,-0.0532,-0.053,-0.0501,-0.05,-0.0468,-0.0438,-0.045,-0.039,-0.0357,-0.0352,-0.0275,-0.0218,-0.0198,-0.0239,-0.0239,-0.0239,-0.0239,-0.0239,0,-0.0333,-0.039,-0.044,-0.0456,-0.0501,-0.0529,-0.055,-0.0564,-0.0584,-0.0587,-0.0592,-0.0584,-0.0566,-0.0543,-0.0442,-0.0455,-0.0393,-0.0404,-0.027,-0.026,-0.0329,-0.0322,-0.0387,-0.0387,-0.0387,-0.0387,-0.0388,0,-0.0367,-0.041,-0.0458,-0.0486,-0.0551,-0.0564,-0.062,-0.0632,-0.065,-0.0672,-0.064,-0.0638,-0.0594,-0.0537,-0.0465,-0.0352,-0.0405,-0.0278,-0.0247,-0.0347,-0.0345,-0.0325,-0.032,-0.0383,-0.0384,-0.0385,-0.0385,0,-0.0386,-0.0417,-0.0481,-0.0541,-0.0565,-0.0608,-0.0668,-0.0701,-0.0705,-0.0732,-0.0733,-0.0684,-0.0602,-0.0509,-0.043,-0.0359,-0.0275,-0.0209,-0.0256,-0.0229,-0.0108,-0.0107,-0.0078,-0.0075,-0.0072,-0.007,-0.0068,0,-0.04,-0.0433,-0.0519,-0.0563,-0.0595,-0.0658,-0.0702,-0.0729,-0.0753,-0.0751,-0.0759,-0.0678,-0.0625,-0.0437,-0.0354,-0.0187,-0.0163,-0.0097,-0.0172,-0.0114,-0.0087,-0.009,-0.0093,-0.0064,-0.0064,-0.0063,-0.0062,0,-0.0423,-0.0455,-0.0506,-0.0595,-0.0655,-0.0722,-0.0776,-0.0796,-0.0812,-0.0821,-0.0762,-0.0662,-0.0539,-0.041,-0.0249,-0.0148,-0.0154,-0.0072,-0.0077,-0.0147,-0.0098,-0.0074,-0.0079,-0.0054,-0.0055,-0.0056,-0.0056,0,-0.0436,-0.0478,-0.0545,-0.062,-0.07,-0.0759,-0.079,-0.0802,-0.082,-0.0802,-0.0775,-0.0652,-0.0583,-0.0384,-0.0259,-0.0131,-0.0121,-0.0105,-0.0109,-0.0117,-0.0176,-0.0123,-0.0067,0,0,0,0,0,-0.0444,-0.0491,-0.0566,-0.0649,-0.0726,-0.0767,-0.0828,-0.0845,-0.0855,-0.081,-0.0789,-0.0669,-0.0466,-0.0385,-0.0244,-0.0227,-0.0107,-0.0059,-0.0093,-0.0006,-0.0016,-0.0075,0,0,0,0,0,0,-0.0452,-0.052,-0.0561,-0.0651,-0.0706,-0.0785,-0.0822,-0.0831,-0.0797,-0.0787,-0.0676,-0.0629,-0.043,-0.0536,-0.0237,-0.02,-0.0202,0.0031,0.0034,-0.0,-0.0009,-0.0017,-0.0081,0,0,0,0,0]}]]